Location: Unspecified
(0.0000°N, 0.0000°E)
Time: 01:44:05
(UTC+00:00)

Vanguard 1 Rocket - Visible Passes

Search period start: 27 February 2021 00:00
Search period end: 09 March 2021 00:00
Orbit: 654 x 4222 km, 34.3° (Epoch: 26 February)

Date Brightness Start Highest point End Pass type
(mag) Time Alt. Az. Time Alt. Az. Time Alt. Az.
27 Feb 11.5 01:04:04 21° NNE 01:04:04 21° NNE 01:10:08 10° NE visible
27 Feb 11.2 03:21:19 25° NNW 03:22:59 25° NNW 03:40:44 10° NNE visible
27 Feb 11.3 05:50:11 10° NW 06:03:29 18° N 06:13:13 10° NE visible
27 Feb 9.7 20:48:07 10° SSW 20:57:55 47° SSE 20:57:55 47° SSE visible
27 Feb 11.0 23:13:13 10° WSW 23:56:24 - NE 23:15:12 17° WSW visible
28 Feb 11.3 02:13:38 28° N 02:13:38 28° N 02:26:50 10° NNE visible
28 Feb 11.4 04:30:52 11° NW 04:46:06 19° N 04:58:49 10° NE visible
28 Feb 10.0 19:38:39 10° SSW 19:46:48 27° SE 19:50:39 24° ESE visible
28 Feb 10.1 22:01:34 10° SW 22:07:56 43° SW 22:07:56 43° SW visible
01 Mar 11.5 01:05:55 21° NNE 01:05:55 21° NNE 01:12:28 10° NE visible
01 Mar 11.3 03:23:09 22° NNW 03:27:43 23° NNW 03:44:18 10° NNE visible
01 Mar 11.2 05:53:16 10° NNW 06:08:10 21° N 06:18:34 10° NE visible
01 Mar 10.3 18:31:42 10° SSE 18:34:42 12° SE 18:38:14 10° ESE visible
01 Mar 9.5 20:50:54 10° SW 21:00:43 59° SSE 21:00:43 59° SSE visible
01 Mar 11.1 23:16:44 10° WSW 23:58:11 - NE 23:18:01 14° WSW visible
02 Mar 11.3 02:15:25 26° N 02:15:25 26° N 02:29:42 10° NNE visible
02 Mar 11.4 04:34:47 10° NW 04:51:07 20° N 05:03:49 10° NE visible
02 Mar 9.7 19:41:06 10° SSW 19:49:35 35° SE 19:53:36 30° ESE visible
02 Mar 10.1 22:04:45 10° WSW 22:10:53 42° WSW 22:10:53 42° WSW visible
03 Mar 11.5 01:07:39 21° NNE 01:07:39 21° NNE 01:14:53 10° NE visible
03 Mar 11.4 03:24:53 19° NNW 03:32:43 21° N 03:48:28 10° NE visible
03 Mar 10.0 18:32:44 10° S 18:37:51 16° SE 18:44:54 10° ESE visible
03 Mar 9.2 20:53:48 10° SW 21:03:49 74° SSE 21:03:49 74° SSE visible
03 Mar 11.2 23:20:33 10° W 23:59:52 10° NE 23:21:08 12° W visible
04 Mar 11.4 02:17:06 24° N 02:17:06 24° N 02:32:59 10° NE visible
04 Mar 11.4 04:38:35 10° NW 04:56:01 22° N 05:09:04 10° NE visible
04 Mar 9.3 19:43:44 10° SSW 19:52:16 45° SE 19:56:50 36° E visible
04 Mar 10.1 22:08:09 10° WSW 22:14:08 39° W 22:14:08 39° W visible
05 Mar 11.5 01:09:18 21° NNE 01:09:18 21° NNE 01:17:30 10° NE visible
05 Mar 11.5 03:26:32 16° NNW 03:37:50 21° N 03:53:15 10° NE visible
05 Mar 9.7 18:34:42 10° S 18:40:46 23° SE 18:49:54 10° E visible
05 Mar 9.2 20:56:53 10° SW 21:07:13 88° NW 21:07:13 88° NW visible
06 Mar 11.2 00:01:31 11° NE 00:01:31 11° NE 00:01:59 10° NE visible
06 Mar 11.4 02:18:44 23° N 02:18:53 23° N 02:36:50 10° NE visible
06 Mar 11.3 04:41:44 10° NW 05:00:41 26° NNE 05:14:17 10° ENE visible
06 Mar 9.0 19:46:32 10° SW 19:54:57 59° SE 20:00:23 40° E visible
06 Mar 10.3 22:11:49 10° WSW 22:17:42 35° W 22:17:42 35° W visible
07 Mar 11.5 01:10:57 21° NNE 01:10:57 21° NNE 01:20:26 10° NE visible
07 Mar 11.5 03:28:10 14° NNW 03:42:54 23° N 03:58:27 10° NE visible
07 Mar 9.3 18:37:03 10° SSW 18:43:32 31° SE 18:53:36 12° E visible
07 Mar 9.3 21:00:11 10° WSW 21:10:18 71° NW 21:10:56 70° NNW visible
08 Mar 11.3 00:03:10 12° NE 00:03:10 12° NE 00:04:19 10° NE visible
08 Mar 11.4 02:20:23 21° N 02:24:00 22° N 02:41:20 10° NE visible
08 Mar 11.2 04:44:25 10° NW 05:05:03 30° NNE 05:19:14 10° ENE visible
08 Mar 8.8 19:49:30 10° SW 19:57:45 77° SE 20:04:14 39° ENE visible
08 Mar 10.4 22:15:46 10° W 22:55:24 - NE 22:21:34 31° WNW visible
